• In Hungary
  • List of Countries
  • For 7 days
  • Water Temperature
  • Satellite Maps
  • Weather Map
  • News
  • Weather Widgets
  • user-avatar
    Login

    Hourly Weather Kadischi

    Today, 14 August, Tuesday

    Time Temperature Precipitation Wind Pressure Humidity
    00:00 +12°C° 0 mm 2 mps 736 mmHg 97%
    01:00 +10°C° 0 mm 2 mps 736 mmHg 97%
    02:00 +10°C° 0 mm 2 mps 736 mmHg 98%
    03:00 +10°C° 0 mm 2 mps 736 mmHg 98%
    04:00 +11°C° 0 mm 1 mps 737 mmHg 98%
    05:00 +11°C° 0 mm 1 mps 737 mmHg 98%
    06:00 +13°C° 0 mm 1 mps 737 mmHg 90%
    07:00 +15°C° 0 mm 1 mps 737 mmHg 83%
    08:00 +18°C° 0 mm 1 mps 738 mmHg 76%
    09:00 +18°C° 0 mm 2 mps 738 mmHg 68%
    10:00 +20°C° 0 mm 2 mps 738 mmHg 60%
    11:00 +23°C° 0 mm 2 mps 738 mmHg 52%
    12:00 +23°C° 0 mm 2 mps 738 mmHg 50%
    13:00 +23°C° 0 mm 2 mps 738 mmHg 49%
    14:00 +24°C° 0 mm 2 mps 737 mmHg 47%
    15:00 +24°C° 0 mm 1 mps 737 mmHg 50%
    16:00 +24°C° 0 mm 1 mps 737 mmHg 53%
    17:00 +24°C° 0 mm 1 mps 737 mmHg 55%
    18:00 +21°C° 0 mm 1 mps 737 mmHg 62%
    19:00 +19°C° 0 mm 1 mps 737 mmHg 68%
    20:00 +16°C° 0 mm 1 mps 737 mmHg 75%
    21:00 +16°C° 0 mm 1 mps 736 mmHg 78%
    22:00 +15°C° 0 mm 1 mps 736 mmHg 81%
    23:00 +15°C° 0 mm 1 mps 736 mmHg 84%

    Tomorrow, 15 August, Wednesday

    Time Temperature Precipitation Wind Pressure Humidity
    00:00 +15°C° 0 mm 2 mps 736 mmHg 87%
    01:00 +15°C° 0 mm 2 mps 736 mmHg 90%
    02:00 +15°C° 0 mm 2 mps 735 mmHg 93%
    03:00 +16°C° 0.1 mm 3 mps 735 mmHg 93%
    04:00 +16°C° 0.1 mm 3 mps 734 mmHg 92%
    05:00 +17°C° 0.1 mm 3 mps 734 mmHg 91%
    06:00 +17°C° 0.2 mm 4 mps 733 mmHg 91%
    07:00 +18°C° 0.2 mm 4 mps 733 mmHg 90%
    08:00 +19°C° 0.2 mm 4 mps 732 mmHg 90%
    09:00 +20°C° 0.4 mm 4 mps 732 mmHg 87%
    10:00 +21°C° 0.4 mm 4 mps 732 mmHg 84%
    11:00 +22°C° 0.4 mm 5 mps 732 mmHg 82%
    12:00 +22°C° 0.2 mm 5 mps 732 mmHg 79%
    13:00 +22°C° 0.2 mm 5 mps 733 mmHg 77%
    14:00 +22°C° 0.2 mm 5 mps 733 mmHg 75%
    15:00 +22°C° 0 mm 4 mps 733 mmHg 73%
    16:00 +21°C° 0 mm 4 mps 733 mmHg 72%
    17:00 +21°C° 0 mm 4 mps 733 mmHg 70%
    18:00 +19°C° 0 mm 3 mps 734 mmHg 77%
    19:00 +18°C° 0 mm 2 mps 734 mmHg 84%
    20:00 +16°C° 0 mm 2 mps 734 mmHg 92%
    21:00 +16°C° 0 mm 2 mps 734 mmHg 93%
    22:00 +15°C° 0 mm 2 mps 735 mmHg 95%
    23:00 +15°C° 0 mm 2 mps 735 mmHg 97%

    Day after tomorrow, 16 August, Thursday

    Time Temperature Precipitation Wind Pressure Humidity
    00:00 +15°C° 0 mm 1 mps 735 mmHg 97%
    01:00 +15°C° 0 mm 1 mps 736 mmHg 97%
    02:00 +15°C° 0 mm 1 mps 736 mmHg 97%
    03:00 +15°C° 0 mm 1 mps 736 mmHg 97%
    04:00 +14°C° 0 mm 1 mps 737 mmHg 97%
    05:00 +14°C° 0 mm 1 mps 737 mmHg 97%
    06:00 +15°C° 0 mm 1 mps 737 mmHg 93%
    07:00 +15°C° 0 mm 2 mps 738 mmHg 90%
    08:00 +16°C° 0 mm 2 mps 738 mmHg 86%
    09:00 +17°C° 0 mm 2 mps 739 mmHg 79%
    10:00 +18°C° 0 mm 2 mps 739 mmHg 71%
    11:00 +20°C° 0 mm 2 mps 739 mmHg 63%
    12:00 +20°C° 0 mm 2 mps 739 mmHg 59%
    13:00 +21°C° 0 mm 2 mps 740 mmHg 55%
    14:00 +23°C° 0 mm 2 mps 740 mmHg 51%
    15:00 +23°C° 0 mm 2 mps 740 mmHg 53%
    16:00 +23°C° 0 mm 2 mps 740 mmHg 55%
    17:00 +23°C° 0 mm 2 mps 740 mmHg 57%
    18:00 +20°C° 0 mm 2 mps 740 mmHg 64%
    19:00 +18°C° 0 mm 2 mps 741 mmHg 72%
    20:00 +16°C° 0 mm 1 mps 741 mmHg 79%
    21:00 +15°C° 0 mm 1 mps 741 mmHg 81%
    22:00 +14°C° 0 mm 1 mps 742 mmHg 84%
    23:00 +13°C° 0 mm 1 mps 742 mmHg 86%

    17 August, Friday

    Time Temperature Precipitation Wind Pressure Humidity
    00:00 +13°C° 0 mm 1 mps 742 mmHg 86%
    01:00 +12°C° 0 mm 1 mps 742 mmHg 87%
    02:00 +12°C° 0 mm 1 mps 742 mmHg 88%
    03:00 +12°C° 0 mm 1 mps 743 mmHg 88%
    04:00 +11°C° 0 mm 1 mps 743 mmHg 88%
    05:00 +11°C° 0 mm 1 mps 743 mmHg 88%
    06:00 +13°C° 0 mm 1 mps 743 mmHg 79%
    07:00 +16°C° 0 mm 1 mps 744 mmHg 71%
    08:00 +19°C° 0 mm 1 mps 744 mmHg 63%
    09:00 +20°C° 0 mm 1 mps 744 mmHg 57%
    10:00 +21°C° 0 mm 2 mps 744 mmHg 51%
    11:00 +23°C° 0 mm 2 mps 744 mmHg 45%
    12:00 +24°C° 0 mm 2 mps 744 mmHg 44%
    13:00 +24°C° 0 mm 2 mps 744 mmHg 42%
    14:00 +25°C° 0 mm 2 mps 743 mmHg 41%
    15:00 +24°C° 0 mm 2 mps 743 mmHg 46%
    16:00 +24°C° 0 mm 1 mps 743 mmHg 50%
    17:00 +23°C° 0 mm 1 mps 743 mmHg 55%
    18:00 +21°C° 0 mm 1 mps 743 mmHg 62%
    19:00 +19°C° 0 mm 1 mps 743 mmHg 70%
    20:00 +16°C° 0 mm 1 mps 743 mmHg 77%
    21:00 +15°C° 0 mm 1 mps 743 mmHg 79%
    22:00 +14°C° 0 mm 1 mps 743 mmHg 81%
    23:00 +14°C° 0 mm 1 mps 743 mmHg 84%

    18 August, Saturday

    Time Temperature Precipitation Wind Pressure Humidity
    00:00 +13°C° 0 mm 1 mps 743 mmHg 85%
    01:00 +13°C° 0 mm 1 mps 743 mmHg 85%
    02:00 +12°C° 0 mm 1 mps 743 mmHg 86%
    03:00 +12°C° 0 mm 1 mps 743 mmHg 87%
    04:00 +12°C° 0 mm 1 mps 743 mmHg 87%
    05:00 +12°C° 0 mm 1 mps 743 mmHg 87%
    06:00 +14°C° 0 mm 2 mps 743 mmHg 80%
    07:00 +16°C° 0 mm 2 mps 743 mmHg 72%
    08:00 +18°C° 0 mm 2 mps 743 mmHg 65%
    09:00 +20°C° 0 mm 2 mps 743 mmHg 59%
    10:00 +22°C° 0 mm 3 mps 743 mmHg 54%
    11:00 +24°C° 0 mm 3 mps 743 mmHg 49%
    12:00 +25°C° 0 mm 3 mps 743 mmHg 48%
    13:00 +25°C° 0 mm 3 mps 743 mmHg 47%
    14:00 +26°C° 0 mm 3 mps 742 mmHg 47%
    15:00 +26°C° 0 mm 3 mps 742 mmHg 51%
    16:00 +25°C° 0 mm 3 mps 742 mmHg 55%
    17:00 +25°C° 0 mm 2 mps 742 mmHg 59%
    18:00 +23°C° 0 mm 2 mps 741 mmHg 66%
    19:00 +20°C° 0 mm 2 mps 741 mmHg 74%
    20:00 +18°C° 0 mm 3 mps 741 mmHg 81%
    21:00 +17°C° 0 mm 3 mps 741 mmHg 81%
    22:00 +17°C° 0 mm 3 mps 741 mmHg 81%
    23:00 +16°C° 0 mm 3 mps 741 mmHg 81%

    19 August, Sunday

    Time Temperature Precipitation Wind Pressure Humidity
    00:00 +16°C° 0 mm 3 mps 741 mmHg 82%
    01:00 +14°C° 0 mm 3 mps 740 mmHg 83%
    02:00 +15°C° 0 mm 2 mps 740 mmHg 84%
    03:00 +14°C° 0 mm 3 mps 740 mmHg 84%
    04:00 +14°C° 0 mm 3 mps 740 mmHg 85%
    05:00 +13°C° 0 mm 3 mps 740 mmHg 85%
    06:00 +16°C° 0 mm 3 mps 740 mmHg 82%
    07:00 +17°C° 0 mm 3 mps 739 mmHg 78%
    08:00 +19°C° 0 mm 3 mps 739 mmHg 75%
    09:00 +20°C° 0.1 mm 3 mps 739 mmHg 73%
    10:00 +21°C° 0.1 mm 3 mps 739 mmHg 71%
    11:00 +24°C° 0.1 mm 3 mps 739 mmHg 69%
    12:00 +24°C° 0.3 mm 3 mps 738 mmHg 72%
    13:00 +24°C° 0.3 mm 3 mps 738 mmHg 75%
    14:00 +24°C° 0.3 mm 3 mps 738 mmHg 78%
    15:00 +24°C° 0.3 mm 3 mps 738 mmHg 79%
    16:00 +24°C° 0.3 mm 3 mps 738 mmHg 80%
    17:00 +23°C° 0.3 mm 2 mps 738 mmHg 81%
    18:00 +21°C° 0.3 mm 2 mps 738 mmHg 86%
    19:00 +19°C° 0.3 mm 2 mps 738 mmHg 91%
    20:00 +19°C° 0.3 mm 1 mps 738 mmHg 96%
    21:00 +18°C° 0 mm 1 mps 738 mmHg 96%
    22:00 +16°C° 0 mm 1 mps 738 mmHg 96%
    23:00 +16°C° 0 mm 1 mps 738 mmHg 96%
    Show more